This is the latest recevied weather packets stored in our database for station/object W9PEM-13. If no packets are shown the sender has not sent any weather packets the latest 10 day(s).
| Time | Temp. | Humidity | Pressure | Rain* | Wind** | Luminosity | Snow |
|---|---|---|---|---|---|---|---|
| 1778065246 | 1.11° C | 91% | 981.5 hPa | 0 mm | - | 11 W/m² | - |
| 1778065149 | 1.11° C | 91% | 981.5 hPa | 0 mm | - | 11 W/m² | - |
| 1778064662 | 0.56° C | 90% | 981.4 hPa | 0 mm | - | 5 W/m² | - |
| 1778064549 | 0.56° C | 90% | 981.4 hPa | 0 mm | - | 5 W/m² | - |
| 1778064050 | 0.56° C | 91% | 981.4 hPa | 0 mm | - | 3 W/m² | - |
| 1778063949 | 0.56° C | 91% | 981.4 hPa | 0 mm | - | 3 W/m² | - |
| 1778063462 | 0.56° C | 91% | 981.3 hPa | 0 mm | - | 1 W/m² | - |
| 1778063349 | 0.56° C | 91% | 981.3 hPa | 0 mm | - | 1 W/m² | - |
| 1778062828 | 0.56° C | 89% | 981.1 hPa | 0 mm | - | 0 W/m² | - |
| 1778062751 | 0.56° C | 89% | 981.1 hPa | 0 mm | - | 0 W/m² | - |
| 1778062262 | 0.56° C | 90% | 981 hPa | 0 mm | - | 0 W/m² | - |
| 1778062149 | 0.56° C | 90% | 981 hPa | 0 mm | - | 0 W/m² | - |
| 1778061645 | 0° C | 92% | 981.1 hPa | 0 mm | - | 0 W/m² | - |
| 1778061549 | 0° C | 92% | 981.1 hPa | 0 mm | - | 0 W/m² | - |
| 1778061054 | 0° C | 90% | 981.1 hPa | 0 mm | - | 0 W/m² | - |
| 1778060951 | 0° C | 90% | 981.1 hPa | 0 mm | - | 0 W/m² | - |
| 1778060448 | 0° C | 89% | 981.3 hPa | 0 mm | - | 0 W/m² | - |
| 1778060349 | 0° C | 89% | 981.3 hPa | 0 mm | - | 0 W/m² | - |
| 1778059839 | -0.56° C | 91% | 981.4 hPa | 0 mm | - | 0 W/m² | - |
| 1778059750 | -0.56° C | 91% | 981.4 hPa | 0 mm | - | 0 W/m² | - |
| 1778058626 | -0.56° C | 90% | 981.1 hPa | 0 mm | - | 0 W/m² | - |
| 1778058549 | -0.56° C | 90% | 981.1 hPa | 0 mm | - | 0 W/m² | - |
| 1778058018 | -0.56° C | 91% | 980.9 hPa | 0 mm | - | 0 W/m² | - |
| 1778057950 | -0.56° C | 91% | 980.9 hPa | 0 mm | - | 0 W/m² | - |
| 1778057479 | -0.56° C | 88% | 980.9 hPa | 0 mm | - | 0 W/m² | - |
* Rain latest hour (hover to see other rain measurements)
** Current wind speed in m/s (hover to see current wind gust speed)